Regional Weather Roundup
Issued by NWS

Home | Current Version | Previous Version | Text Only | Print | Product List | Glossary Off
Versions: 1 2 3 4 5 6 7 8 9 10 11 12 13 14 15 16 17 18 19 20 21 22 23 24 25 26 27 28 29 30 31 32 33 34 35 36 37 38 39 40 41 42 43 44 45 46 47 48 49 50

000
ASUS43 KMPX 280510
RWRMN
WEATHER ROUNDUP FOR MINNESOTA
NATIONAL WEATHER SERVICE TWIN CITIES/CHANHASSEN MN
1200 AM CDT SAT MAR 28 2015


NOTE: "FAIR" INDICATES FEW OR NO CLOUDS BELOW 12,000 FEET WITH NO
SIGNIFICANT WEATHER AND/OR OBSTRUCTIONS TO VISIBILITY. N/A MEANS
CURRENT SKY AND/OR WEATHER CONDITIONS ARE NOT AVAILABLE.

MNZ060>063-068>070-280600-
   Twin Cities Metro

CITY           SKY/WX    TMP DP  RH WIND       PRES   REMARKS
TWIN CITIES    MOCLDY    27   8  44 CALM      30.19R
ST PAUL        MOCLDY    27   9  46 S5        30.20S WCI  22
CRYSTAL        MOCLDY    27  10  49 CALM      30.17S
BLAINE         MOCLDY    27  14  59 E3        30.18R
LAKEVILLE      MOCLDY    19  12  73 CALM      30.18S
EDEN PRAIRIE   MOCLDY    25   9  50 SE3       30.17R
SOUTH ST PAUL  MOCLDY    27   8  44 CALM      30.19S
LAKE ELMO      CLOUDY    27  16  63 CALM      30.19S
$$
MNZ001>005-007-008-013>017-022>024-027-028-280600-
   Northwest Minnesota

CITY           SKY/WX    TMP DP  RH WIND       PRES   REMARKS
BEMIDJI        CLEAR     22   8  53 CALM      30.12R
HALLOCK        CLEAR     25  21  86 SE6       30.12S WCI  18
ROSEAU         CLEAR     25  19  80 CALM      30.12F
WARROAD        CLEAR     21  18  86 CALM      30.12F
THIEF RVR FALL CLEAR     27  19  74 SE5       30.12S WCI  21
CROOKSTON      CLEAR     23  18  80 SE7       30.13S WCI  15
FOSSTON        CLEAR     21  14  73 CALM      30.12S
DETROIT LAKES  FAIR      28  14  54 SE3       30.12S
MOORHEAD       CLOUDY    30  25  80 S5        30.12F WCI  25
PARK RAPIDS    FAIR      27  10  49 S3        30.10S
MAHNOMEN       FAIR      23  14  67 SE5       30.11S WCI  17
$$
MNZ006-009>011-018-025>026-280600-
   North Central Minnesota

CITY           SKY/WX    TMP DP  RH WIND       PRES   REMARKS
BAUDETTE       CLEAR     21  16  81 CALM      30.11S
FLAG ISLAND    CLEAR     21   9  58 CALM      30.12S
INTL FALLS     CLEAR     18  12  77 CALM      30.12F
WASKISH        CLEAR     18  14  86 CALM      30.13S
BIG FORK       CLEAR     19  10  68 CALM      30.13S
LONGVILLE      CLEAR     19  10  68 CALM      30.13S
GRAND RAPIDS   CLEAR     19   9  63 CALM      30.13R
ORR            CLEAR     16   7  67 CALM      30.10S
COOK           CLEAR     18   7  62 CALM      30.14R
WALKER         FAIR      22   9  55 CALM      30.12R
$$
MNZ012-019>021-037-280600-
   Northeast Minnesota

CITY           SKY/WX    TMP DP  RH WIND       PRES   REMARKS
DULUTH         CLEAR     20  11  68 CALM      30.16R
ELY            CLEAR     16   7  67 S5        30.15S WCI   9
HIBBING        CLEAR     16   5  62 SE5       30.14R WCI   9
EVELETH        CLEAR     18   5  57 CALM      30.16S
DULUTH HARBOR  CLEAR     27  19  74 CALM      30.21S
TWO HARBORS    CLEAR     19  12  73 N3        30.17S
SILVER BAY     CLEAR     10   9  92 CALM      30.17S
GRAND MARAIS     N/A     14   9  80 NW3       30.22F
G MARAIS ARPRT PTCLDY     0  -6  78 W5        30.14S WCI -10
$$
MNZ029>031-032-039>041-046>048-054>057-064-280600-
   West Central Minnesota

CITY           SKY/WX    TMP DP  RH WIND       PRES   REMARKS
FERGUS FALLS   CLOUDY    28  16  59 SE7       30.14F WCI  21
WHEATON        CLOUDY    28  25  86 SE5       30.13S WCI  23
MORRIS         CLOUDY    30  23  74 SE9       30.12S WCI  22
ALEXANDRIA     CLOUDY    27  17  66 SE9       30.13S WCI  18
ELBOW LAKE     CLOUDY    29  19  65 SE7       30.12S WCI  22
WADENA         FAIR      25  16  68 CALM      30.12S
GLENWOOD       CLOUDY    27  18  69 SE7       30.13F WCI  19
APPLETON       CLOUDY    30  25  80 SE7       30.13S WCI  23
BENSON         CLOUDY    28  19  69 S3        30.14R
ORTONVILLE     CLOUDY    30  21  69 S7        30.11S WCI  23
MADISON        CLOUDY    30  25  80 SE8       30.12S WCI  23
WILLMAR        FAIR      28  16  59 SE8       30.16R WCI  20
$$
MNZ033>034-036-042>043-049>051-058-059-280600-
   Central Minnesota

CITY           SKY/WX    TMP DP  RH WIND       PRES   REMARKS
ST CLOUD       CLOUDY    27  11  51 CALM      30.15S
SAUK CENTRE    MOCLDY    26  18  70 S3        30.14S
PAYNESVILLE    CLOUDY    25  14  62 E5        30.15S WCI  19
AITKIN         CLEAR     23  16  74 CALM      30.13S
PINE RIVER     CLEAR     23  16  74 CALM      30.16S
BRAINERD       CLEAR     22  10  60 CALM      30.14S
STAPLES        CLOUDY    25  12  58 CALM      30.13S
LONG PRAIRIE   CLOUDY    27  18  69 S3        30.14S
LITTLE FALLS   PTCLDY    27  12  54 CALM      30.16R
LITCHFIELD     CLOUDY    28  16  59 CALM      30.16S
BUFFALO        CLOUDY    27  12  54 CALM      30.18S
MAPLE LAKE     CLOUDY    28  17  64 CALM      30.17S
$$
MNZ037-044-045-052-053-280600-
   East Central Minnesota

CITY           SKY/WX    TMP DP  RH WIND       PRES   REMARKS
PRINCETON      PTCLDY    25  16  68 CALM      30.16S
MORA           PTCLDY    23  12  63 CALM      30.18R
CAMBRIDGE      MOCLDY    28  16  59 CALM      30.15F
RUSH CITY      MOCLDY    24  15  69 CALM      30.18S
MOOSE LAKE     PTCLDY    25   3  39 CALM      30.15S
HINCKLEY       MOCLDY    25  16  68 CALM      30.17R
CLOQUET        CLEAR     21  12  68 E3        30.16S
MCGREGOR       CLEAR     21  16  79 CALM      30.15S
$$
MNZ071>073-080-081-089-090-097-098-280600-
   Southwest Minnesota

CITY           SKY/WX    TMP DP  RH WIND       PRES   REMARKS
MONTEVIDEO     CLOUDY    28  25  86 S3        30.14S
GRANITE FALLS  CLOUDY    29  26  88 CALM      30.15S
CANBY          CLOUDY    30  26  84 SE9       30.13S WCI  21
MARSHALL       CLOUDY    28  23  80 S7        30.13F WCI  21
REDWOOD FALLS  CLOUDY    31  22  69 CALM      30.14S
OLIVIA         MOCLDY    28  19  69 SE8       30.14R WCI  20
PIPESTONE      MIX PCPN  28  25  86 SE8       30.08S WCI  20
WINDOM         LGT SNOW  28  27  93 CALM      30.13S
WORTHINGTON    CLOUDY    27  23  86 E6        30.12S WCI  20
JACKSON        LGT SNOW  30  27  86 W5        30.13R WCI  25
TRACY          FLURRIES  28  27  93 S5        30.12F WCI  23
SLAYTON        LGT SNOW  27  25  94 CALM      30.12S
$$
MNZ065>067-074>077-082>085-091>093-280600-
   South Central Minnesota

CITY           SKY/WX    TMP DP  RH WIND       PRES   REMARKS
MANKATO        CLOUDY    27  14  59 SE13      30.16S WCI  16
NEW ULM        CLOUDY    28  18  64 SE6       30.15S WCI  22
ST JAMES       CLOUDY    30  23  74 E7        30.15F WCI  23
FAIRMONT       CLOUDY    30  19  64 S5        30.13S WCI  25
GLENCOE        CLOUDY    26  18  71 E5        30.16R WCI  20
FARIBAULT      CLOUDY    25  10  54 CALM      30.18S
OWATONNA       MOCLDY    25  10  54 SE7       30.16S WCI  17
WASECA         MOCLDY    25  12  58 SE6       30.18S WCI  18
ALBERT LEA     CLOUDY    27  14  59 SE8       30.16S WCI  18
$$
MNZ078>079-086>088-094>096-280600-
   Southeast Minnesota

CITY           SKY/WX    TMP DP  RH WIND       PRES   REMARKS
ROCHESTER      MOCLDY    19  10  68 SE5       30.17S WCI  12
RED WING       PTCLDY    23  12  63 CALM      30.19S
STANTON        CLOUDY    23  11  60 CALM      30.17S
DODGE CENTER   MOCLDY    19  12  73 SE3       30.16S
WINONA         CLEAR     23  16  74 NW3       30.22R
AUSTIN         MOCLDY    21  14  73 CALM      30.17S
PRESTON        PTCLDY    21  10  63 CALM      30.17F
$$
ABBREVIATIONS USED IN REMARKS
   TC - TEMPERATURES IN CELSIUS
  WCI - WIND CHILL INDEX
   HX - HEAT INDEX
  VSB - VISIBILITY
$$



USA.gov is the U.S. government's official web portal to all federal, state and local government web resources and services.